Time,TemperatureF,DewpointF,PressureIn,WindDirection,WindDirectionDegrees,WindSpeedMPH,WindSpeedGustMPH,Humidity,HourlyPrecipIn,Conditions,Clouds,dailyrainin,SoftwareType,DateUTC
2013-08-17 00:03:00,63.0,56.0,30.00,WSW,248,1.6,1.6,78,0.00,,,0.00,WUHU216HW,2013-08-17 07:03:00,
2013-08-17 00:08:00,63.0,56.0,30.01,West,270,2.2,2.2,78,0.00,,,0.00,WUHU216HW,2013-08-17 07:08:00,
2013-08-17 00:13:00,62.8,56.2,30.01,West,270,2.2,2.2,79,0.00,,,0.00,WUHU216HW,2013-08-17 07:13:00,
2013-08-17 00:18:00,62.6,56.0,30.01,WSW,248,0.9,2.2,79,0.00,,,0.00,WUHU216HW,2013-08-17 07:18:00,
2013-08-17 00:23:00,62.5,55.8,30.00,NW,315,0.0,1.8,79,0.00,,,0.00,WUHU216HW,2013-08-17 07:23:00,
2013-08-17 00:28:00,62.3,55.6,30.01,WSW,248,1.8,1.8,79,0.00,,,0.00,WUHU216HW,2013-08-17 07:28:00,
2013-08-17 00:33:00,62.3,55.6,30.01,WSW,248,1.6,1.8,79,0.00,,,0.00,WUHU216HW,2013-08-17 07:33:00,
2013-08-17 00:38:00,62.3,55.6,30.01,WSW,248,0.4,1.8,79,0.00,,,0.00,WUHU216HW,2013-08-17 07:38:00,
2013-08-17 00:43:00,62.3,55.6,30.01,South,180,0.2,1.8,79,0.00,,,0.00,WUHU216HW,2013-08-17 07:43:00,
2013-08-17 00:48:00,62.1,55.5,30.01,SW,225,1.6,1.6,79,0.00,,,0.00,WUHU216HW,2013-08-17 07:48:00,
2013-08-17 00:53:00,62.1,55.5,30.01,WSW,248,0.2,1.6,79,0.00,,,0.00,WUHU216HW,2013-08-17 07:53:00,
2013-08-17 00:58:00,61.9,55.4,30.01,West,270,2.9,2.9,79,0.00,,,0.00,WUHU216HW,2013-08-17 07:58:00,
2013-08-17 01:03:00,61.9,55.4,30.01,WNW,293,1.1,2.9,79,0.00,,,0.00,WUHU216HW,2013-08-17 08:03:00,
2013-08-17 01:08:00,61.7,55.2,30.01,WNW,293,1.8,2.5,79,0.00,,,0.00,WUHU216HW,2013-08-17 08:08:00,
2013-08-17 01:13:00,61.6,55.0,30.01,West,270,1.3,2.9,79,0.00,,,0.00,WUHU216HW,2013-08-17 08:13:00,
2013-08-17 01:18:00,61.6,55.0,30.01,West,270,2.2,2.9,79,0.00,,,0.00,WUHU216HW,2013-08-17 08:18:00,
2013-08-17 01:23:00,61.4,54.8,30.01,WSW,248,1.3,2.5,79,0.00,,,0.00,WUHU216HW,2013-08-17 08:23:00,
2013-08-17 01:28:00,61.2,54.7,30.01,SSE,158,0.0,2.5,79,0.00,,,0.00,WUHU216HW,2013-08-17 08:28:00,
2013-08-17 01:33:00,61.2,54.7,30.01,NE,45,0.0,1.6,79,0.00,,,0.00,WUHU216HW,2013-08-17 08:33:00,
2013-08-17 01:38:00,61.0,54.9,30.00,ENE,68,1.1,1.6,80,0.00,,,0.00,WUHU216HW,2013-08-17 08:38:00,
2013-08-17 01:43:00,61.0,54.9,30.01,North,0,0.0,1.6,80,0.00,,,0.00,WUHU216HW,2013-08-17 08:43:00,
2013-08-17 01:48:00,60.8,54.7,30.00,North,0,0.0,1.1,80,0.00,,,0.00,WUHU216HW,2013-08-17 08:48:00,
2013-08-17 01:53:00,61.0,54.9,30.01,North,0,0.0,0.0,80,0.00,,,0.00,WUHU216HW,2013-08-17 08:53:00,
2013-08-17 01:58:00,61.0,54.9,30.01,West,270,0.0,0.0,80,0.00,,,0.00,WUHU216HW,2013-08-17 08:58:00,
2013-08-17 02:03:00,61.0,54.9,30.01,WSW,248,0.0,1.1,80,0.00,,,0.00,WUHU216HW,2013-08-17 09:03:00,
2013-08-17 02:08:00,61.2,55.1,30.00,SW,225,0.0,1.1,80,0.00,,,0.00,WUHU216HW,2013-08-17 09:08:00,
2013-08-17 02:13:00,61.0,54.9,30.00,SW,225,0.0,0.4,80,0.00,,,0.00,WUHU216HW,2013-08-17 09:13:00,
2013-08-17 02:18:00,61.2,55.1,30.01,WNW,293,0.0,0.0,80,0.00,,,0.00,WUHU216HW,2013-08-17 09:18:00,
2013-08-17 02:23:00,61.2,55.1,30.00,SSW,203,0.0,0.0,80,0.00,,,0.00,WUHU216HW,2013-08-17 09:23:00,
2013-08-17 02:28:00,61.2,55.1,30.01,West,270,1.1,1.1,80,0.00,,,0.00,WUHU216HW,2013-08-17 09:28:00,
2013-08-17 02:33:00,61.2,55.1,30.01,WSW,248,1.3,2.0,80,0.00,,,0.00,WUHU216HW,2013-08-17 09:33:00,
2013-08-17 02:38:00,61.0,54.9,30.01,West,270,2.7,2.7,80,0.00,,,0.00,WUHU216HW,2013-08-17 09:38:00,
2013-08-17 02:43:00,61.0,55.2,30.01,WSW,248,0.9,2.7,81,0.00,,,0.00,WUHU216HW,2013-08-17 09:43:00,
2013-08-17 02:48:00,61.0,55.2,30.01,SSW,203,0.2,1.8,81,0.00,,,0.00,WUHU216HW,2013-08-17 09:48:00,
2013-08-17 02:53:00,60.8,55.1,30.01,WSW,248,1.8,2.0,81,0.00,,,0.00,WUHU216HW,2013-08-17 09:53:00,
2013-08-17 02:58:00,60.8,55.1,30.01,West,270,0.4,2.0,81,0.00,,,0.00,WUHU216HW,2013-08-17 09:58:00,
2013-08-17 03:03:00,60.8,55.1,30.01,WSW,248,0.0,1.8,81,0.00,,,0.00,WUHU216HW,2013-08-17 10:03:00,
2013-08-17 03:08:00,60.8,55.1,30.01,WSW,248,1.8,1.8,81,0.00,,,0.00,WUHU216HW,2013-08-17 10:08:00,
2013-08-17 03:13:00,60.8,55.1,30.01,NW,315,0.4,2.5,81,0.00,,,0.00,WUHU216HW,2013-08-17 10:13:00,
2013-08-17 03:18:00,60.8,55.1,30.01,WSW,248,0.4,2.5,81,0.00,,,0.00,WUHU216HW,2013-08-17 10:18:00,
2013-08-17 03:23:00,60.8,55.1,30.01,West,270,2.0,2.2,81,0.00,,,0.00,WUHU216HW,2013-08-17 10:23:00,
2013-08-17 03:28:00,60.7,54.9,30.01,West,270,1.6,3.4,81,0.00,,,0.00,WUHU216HW,2013-08-17 10:28:00,
2013-08-17 03:33:00,60.7,54.9,30.01,WNW,293,2.9,3.4,81,0.00,,,0.00,WUHU216HW,2013-08-17 10:33:00,
2013-08-17 03:38:00,60.7,54.9,30.01,WNW,293,1.3,3.4,81,0.00,,,0.00,WUHU216HW,2013-08-17 10:38:00,
2013-08-17 03:43:00,60.7,54.9,30.01,NNW,338,1.1,2.5,81,0.00,,,0.00,WUHU216HW,2013-08-17 10:43:00,
2013-08-17 03:48:00,60.7,54.9,30.01,West,270,3.1,3.1,81,0.00,,,0.00,WUHU216HW,2013-08-17 10:48:00,
2013-08-17 03:53:00,60.7,54.9,30.01,West,270,3.4,5.1,81,0.00,,,0.00,WUHU216HW,2013-08-17 10:53:00,
2013-08-17 03:58:00,60.7,54.9,30.01,WSW,248,1.1,5.1,81,0.00,,,0.00,WUHU216HW,2013-08-17 10:58:00,
2013-08-17 04:03:00,60.5,54.7,30.01,WSW,248,0.9,2.5,81,0.00,,,0.00,WUHU216HW,2013-08-17 11:03:00,
2013-08-17 04:08:00,60.7,54.5,30.01,WSW,248,0.0,1.1,80,0.00,,,0.00,WUHU216HW,2013-08-17 11:08:00,
2013-08-17 04:13:00,60.5,54.7,30.01,West,270,1.8,1.8,81,0.00,,,0.00,WUHU216HW,2013-08-17 11:13:00,
2013-08-17 04:18:00,60.5,54.4,30.01,WSW,248,0.0,1.8,80,0.00,,,0.00,WUHU216HW,2013-08-17 11:18:00,
2013-08-17 04:23:00,60.5,54.7,30.01,West,270,1.3,2.7,81,0.00,,,0.00,WUHU216HW,2013-08-17 11:23:00,
2013-08-17 04:28:00,60.5,54.7,30.01,SW,225,0.0,2.7,81,0.00,,,0.00,WUHU216HW,2013-08-17 11:28:00,
2013-08-17 04:33:00,60.5,54.4,30.01,West,270,1.6,1.6,80,0.00,,,0.00,WUHU216HW,2013-08-17 11:33:00,
2013-08-17 04:38:00,60.5,54.7,30.01,WSW,248,0.7,1.6,81,0.00,,,0.00,WUHU216HW,2013-08-17 11:38:00,
2013-08-17 04:43:00,60.5,54.4,30.01,SW,225,0.2,1.3,80,0.00,,,0.00,WUHU216HW,2013-08-17 11:43:00,
2013-08-17 04:48:00,60.5,54.4,30.01,West,270,1.8,1.8,80,0.00,,,0.00,WUHU216HW,2013-08-17 11:48:00,
2013-08-17 04:53:00,60.1,54.0,30.01,WNW,293,1.8,2.5,80,0.00,,,0.00,WUHU216HW,2013-08-17 11:53:00,
2013-08-17 04:58:00,60.1,54.0,30.01,NW,315,0.9,2.5,80,0.00,,,0.00,WUHU216HW,2013-08-17 11:58:00,
2013-08-17 05:03:00,59.8,54.0,30.01,NW,315,1.8,2.0,81,0.00,,,0.00,WUHU216HW,2013-08-17 12:03:00,
2013-08-17 05:08:00,59.6,53.8,30.01,West,270,1.8,2.0,81,0.00,,,0.00,WUHU216HW,2013-08-17 12:08:00,
2013-08-17 05:13:00,59.4,53.7,30.01,SW,225,0.4,1.8,81,0.00,,,0.00,WUHU216HW,2013-08-17 12:13:00,
2013-08-17 05:18:00,59.2,53.5,30.01,NW,315,1.8,2.5,81,0.00,,,0.00,WUHU216HW,2013-08-17 12:18:00,
2013-08-17 05:23:00,59.0,53.3,30.01,NW,315,2.0,2.5,81,0.00,,,0.00,WUHU216HW,2013-08-17 12:23:00,
2013-08-17 05:28:00,58.9,53.1,30.02,NW,315,1.8,2.5,81,0.00,,,0.00,WUHU216HW,2013-08-17 12:28:00,
2013-08-17 05:33:00,58.9,53.1,30.02,NNW,338,0.4,2.5,81,0.00,,,0.00,WUHU216HW,2013-08-17 12:33:00,
2013-08-17 05:38:00,58.7,53.2,30.02,ESE,113,0.4,1.6,82,0.00,,,0.00,WUHU216HW,2013-08-17 12:38:00,
2013-08-17 05:43:00,58.5,53.0,30.02,NNW,338,1.3,1.6,82,0.00,,,0.00,WUHU216HW,2013-08-17 12:43:00,
2013-08-17 05:48:00,58.5,53.0,30.02,WNW,293,2.0,2.0,82,0.00,,,0.00,WUHU216HW,2013-08-17 12:48:00,
2013-08-17 05:53:00,58.5,53.4,30.02,NNW,338,0.4,2.9,83,0.00,,,0.00,WUHU216HW,2013-08-17 12:53:00,
2013-08-17 05:58:00,58.7,53.6,30.02,NW,315,1.3,2.9,83,0.00,,,0.00,WUHU216HW,2013-08-17 12:58:00,
2013-08-17 06:03:00,58.7,53.6,30.02,WNW,293,1.8,2.5,83,0.00,,,0.00,WUHU216HW,2013-08-17 13:03:00,
2013-08-17 06:08:00,58.7,53.6,30.02,NNW,338,1.8,2.7,83,0.00,,,0.00,WUHU216HW,2013-08-17 13:08:00,
2013-08-17 06:13:00,58.7,53.6,30.02,NW,315,1.1,2.7,83,0.00,,,0.00,WUHU216HW,2013-08-17 13:13:00,
2013-08-17 06:18:00,58.7,53.6,30.02,West,270,1.8,2.5,83,0.00,,,0.00,WUHU216HW,2013-08-17 13:18:00,
2013-08-17 06:23:00,58.7,53.6,30.02,NW,315,1.3,2.5,83,0.00,,,0.00,WUHU216HW,2013-08-17 13:23:00,
2013-08-17 06:28:00,58.7,53.6,30.02,WNW,293,0.0,2.5,83,0.00,,,0.00,WUHU216HW,2013-08-17 13:28:00,
2013-08-17 06:33:00,58.7,53.6,30.03,NNW,338,0.0,0.4,83,0.00,,,0.00,WUHU216HW,2013-08-17 13:33:00,
2013-08-17 06:38:00,58.7,53.6,30.03,WSW,248,0.9,1.8,83,0.00,,,0.00,WUHU216HW,2013-08-17 13:38:00,
2013-08-17 06:43:00,58.7,53.6,30.03,WNW,293,3.6,3.6,83,0.00,,,0.00,WUHU216HW,2013-08-17 13:43:00,
2013-08-17 06:48:00,59.0,54.2,30.03,West,270,2.5,5.1,84,0.00,,,0.00,WUHU216HW,2013-08-17 13:48:00,
2013-08-17 06:53:00,59.0,54.2,30.03,WNW,293,2.7,5.1,84,0.00,,,0.00,WUHU216HW,2013-08-17 13:53:00,
2013-08-17 06:58:00,59.2,54.4,30.03,NW,315,2.7,4.9,84,0.00,,,0.00,WUHU216HW,2013-08-17 13:58:00,
2013-08-17 07:03:00,59.4,54.5,30.03,NW,315,1.8,3.1,84,0.00,,,0.00,WUHU216HW,2013-08-17 14:03:00,
2013-08-17 07:08:00,59.4,54.5,30.03,WNW,293,1.1,3.1,84,0.00,,,0.00,WUHU216HW,2013-08-17 14:08:00,
2013-08-17 07:13:00,59.6,54.7,30.03,North,0,0.2,2.7,84,0.00,,,0.00,WUHU216HW,2013-08-17 14:13:00,
2013-08-17 07:18:00,59.8,54.9,30.03,WSW,248,0.0,2.5,84,0.00,,,0.00,WUHU216HW,2013-08-17 14:18:00,
2013-08-17 07:23:00,59.9,55.1,30.03,WNW,293,2.2,2.2,84,0.00,,,0.00,WUHU216HW,2013-08-17 14:23:00,
2013-08-17 07:29:00,60.1,55.0,30.04,WSW,248,1.6,2.5,83,0.00,,,0.00,WUHU216HW,2013-08-17 14:29:00,
2013-08-17 07:34:00,60.3,55.2,30.04,NW,315,2.2,2.5,83,0.00,,,0.00,WUHU216HW,2013-08-17 14:34:00,
2013-08-17 07:39:00,60.7,55.5,30.04,NW,315,1.8,2.2,83,0.00,,,0.00,WUHU216HW,2013-08-17 14:39:00,
2013-08-17 07:44:00,60.8,55.7,30.04,West,270,1.8,2.5,83,0.00,,,0.00,WUHU216HW,2013-08-17 14:44:00,
2013-08-17 07:49:00,61.2,56.1,30.04,West,270,1.8,2.5,83,0.00,,,0.00,WUHU216HW,2013-08-17 14:49:00,
2013-08-17 07:54:00,61.6,56.3,30.04,West,270,2.7,2.7,83,0.00,,,0.00,WUHU216HW,2013-08-17 14:54:00,
2013-08-17 07:59:00,61.6,56.3,30.05,WNW,293,1.3,2.7,83,0.00,,,0.00,WUHU216HW,2013-08-17 14:59:00,
2013-08-17 08:04:00,61.9,56.7,30.04,SE,135,0.7,2.0,83,0.00,,,0.00,WUHU216HW,2013-08-17 15:04:00,
2013-08-17 08:09:00,62.1,56.5,30.04,SE,135,2.7,3.4,82,0.00,,,0.00,WUHU216HW,2013-08-17 15:09:00,
2013-08-17 08:14:00,62.3,56.7,30.04,WSW,248,1.3,3.4,82,0.00,,,0.00,WUHU216HW,2013-08-17 15:14:00,
2013-08-17 08:19:00,62.5,56.9,30.05,WSW,248,1.8,2.5,82,0.00,,,0.00,WUHU216HW,2013-08-17 15:19:00,
2013-08-17 08:24:00,62.6,57.1,30.05,NW,315,2.5,3.6,82,0.00,,,0.00,WUHU216HW,2013-08-17 15:24:00,
2013-08-17 08:29:00,63.0,57.4,30.06,WSW,248,2.5,3.8,82,0.00,,,0.00,WUHU216HW,2013-08-17 15:29:00,
2013-08-17 08:34:00,63.0,57.1,30.05,WSW,248,0.7,4.0,81,0.00,,,0.00,WUHU216HW,2013-08-17 15:34:00,
2013-08-17 08:39:00,63.2,57.3,30.06,SSW,203,1.8,4.0,81,0.00,,,0.00,WUHU216HW,2013-08-17 15:39:00,
2013-08-17 08:44:00,63.4,57.4,30.05,East,90,1.1,2.5,81,0.00,,,0.00,WUHU216HW,2013-08-17 15:44:00,
2013-08-17 08:49:00,63.5,57.2,30.06,NE,45,2.2,4.0,80,0.00,,,0.00,WUHU216HW,2013-08-17 15:49:00,
2013-08-17 08:54:00,63.7,57.4,30.05,WNW,293,0.4,4.0,80,0.00,,,0.00,WUHU216HW,2013-08-17 15:54:00,
2013-08-17 08:59:00,64.1,57.8,30.05,NNE,23,0.7,2.5,80,0.00,,,0.00,WUHU216HW,2013-08-17 15:59:00,
2013-08-17 09:04:00,64.4,58.1,30.05,NW,315,1.8,1.8,80,0.00,,,0.00,WUHU216HW,2013-08-17 16:04:00,
2013-08-17 09:09:00,65.2,58.9,30.06,SW,225,0.4,2.5,80,0.00,,,0.00,WUHU216HW,2013-08-17 16:09:00,
2013-08-17 09:14:00,65.9,59.6,30.06,SSW,203,3.6,3.6,80,0.00,,,0.00,WUHU216HW,2013-08-17 16:14:00,
2013-08-17 09:19:00,66.2,59.6,30.06,ESE,113,2.5,3.6,79,0.00,,,0.00,WUHU216HW,2013-08-17 16:19:00,
2013-08-17 09:24:00,66.4,59.4,30.06,SW,225,1.6,2.9,78,0.00,,,0.00,WUHU216HW,2013-08-17 16:24:00,
2013-08-17 09:29:00,66.6,59.6,30.06,ENE,68,2.2,5.1,78,0.00,,,0.00,WUHU216HW,2013-08-17 16:29:00,
2013-08-17 09:34:00,67.3,59.9,30.06,SSE,158,1.3,5.8,77,0.00,,,0.00,WUHU216HW,2013-08-17 16:34:00,
2013-08-17 09:39:00,67.7,59.9,30.06,SSW,203,2.5,5.8,76,0.00,,,0.00,WUHU216HW,2013-08-17 16:39:00,
2013-08-17 09:44:00,68.0,59.9,30.07,SW,225,4.3,4.3,75,0.00,,,0.00,WUHU216HW,2013-08-17 16:44:00,
2013-08-17 09:49:00,68.0,60.2,30.07,West,270,1.8,4.5,76,0.00,,,0.00,WUHU216HW,2013-08-17 16:49:00,
2013-08-17 09:54:00,68.0,59.9,30.07,SW,225,1.8,4.5,75,0.00,,,0.00,WUHU216HW,2013-08-17 16:54:00,
2013-08-17 09:59:00,68.2,59.7,30.07,SSW,203,1.8,4.3,74,0.00,,,0.00,WUHU216HW,2013-08-17 16:59:00,
2013-08-17 10:04:00,68.6,59.9,30.07,NE,45,1.8,4.3,74,0.00,,,0.00,WUHU216HW,2013-08-17 17:04:00,
2013-08-17 10:09:00,69.1,60.5,30.07,WSW,248,3.8,4.5,74,0.00,,,0.00,WUHU216HW,2013-08-17 17:09:00,
2013-08-17 10:14:00,69.5,60.8,30.08,ESE,113,1.6,4.5,74,0.00,,,0.00,WUHU216HW,2013-08-17 17:14:00,
2013-08-17 10:19:00,69.8,60.8,30.08,SE,135,1.8,4.3,73,0.00,,,0.00,WUHU216HW,2013-08-17 17:19:00,
2013-08-17 10:24:00,69.8,60.8,30.08,SSW,203,2.0,3.4,73,0.00,,,0.00,WUHU216HW,2013-08-17 17:24:00,
2013-08-17 10:29:00,69.8,60.3,30.08,WSW,248,1.6,4.0,72,0.00,,,0.00,WUHU216HW,2013-08-17 17:29:00,
2013-08-17 10:34:00,69.8,60.3,30.08,SSE,158,0.9,4.5,72,0.00,,,0.00,WUHU216HW,2013-08-17 17:34:00,
2013-08-17 10:39:00,69.7,59.8,30.08,SSE,158,5.6,6.0,71,0.00,,,0.00,WUHU216HW,2013-08-17 17:39:00,
2013-08-17 10:44:00,69.5,60.0,30.08,NNE,23,4.0,6.0,72,0.00,,,0.00,WUHU216HW,2013-08-17 17:44:00,
2013-08-17 10:49:00,69.7,60.2,30.08,SSE,158,5.1,5.1,72,0.00,,,0.00,WUHU216HW,2013-08-17 17:49:00,
2013-08-17 10:54:00,70.0,60.1,30.08,ESE,113,2.5,8.3,71,0.00,,,0.00,WUHU216HW,2013-08-17 17:54:00,
2013-08-17 10:59:00,70.4,60.5,30.08,SE,135,3.8,8.3,71,0.00,,,0.00,WUHU216HW,2013-08-17 17:59:00,
2013-08-17 11:04:00,71.3,61.4,30.08,ESE,113,1.8,6.9,71,0.00,,,0.00,WUHU216HW,2013-08-17 18:04:00,
2013-08-17 11:09:00,71.8,61.1,30.08,SE,135,6.3,6.3,69,0.00,,,0.00,WUHU216HW,2013-08-17 18:09:00,
2013-08-17 11:14:00,71.5,60.8,30.08,SE,135,8.7,8.7,69,0.00,,,0.00,WUHU216HW,2013-08-17 18:14:00,
2013-08-17 11:19:00,71.8,61.6,30.08,West,270,2.0,8.7,70,0.00,,,0.00,WUHU216HW,2013-08-17 18:19:00,
2013-08-17 11:24:00,72.2,61.5,30.08,SSE,158,1.8,6.7,69,0.00,,,0.00,WUHU216HW,2013-08-17 18:24:00,
2013-08-17 11:29:00,71.8,61.1,30.08,SSE,158,0.7,9.2,69,0.00,,,0.00,WUHU216HW,2013-08-17 18:29:00,
2013-08-17 11:34:00,71.3,60.1,30.08,West,270,1.1,9.2,68,0.00,,,0.00,WUHU216HW,2013-08-17 18:34:00,
2013-08-17 11:39:00,71.3,60.6,30.09,ENE,68,2.5,5.4,69,0.00,,,0.00,WUHU216HW,2013-08-17 18:39:00,
2013-08-17 11:44:00,71.5,60.3,30.09,NW,315,1.6,4.3,68,0.00,,,0.00,WUHU216HW,2013-08-17 18:44:00,
2013-08-17 11:49:00,71.3,60.6,30.09,SE,135,2.9,4.3,69,0.00,,,0.00,WUHU216HW,2013-08-17 18:49:00,
2013-08-17 11:54:00,71.1,60.4,30.09,WNW,293,0.9,4.0,69,0.00,,,0.00,WUHU216HW,2013-08-17 18:54:00,
2013-08-17 11:59:00,70.9,60.2,30.09,WSW,248,3.1,4.0,69,0.00,,,0.00,WUHU216HW,2013-08-17 18:59:00,
2013-08-17 12:04:00,70.9,60.2,30.09,ENE,68,3.4,5.8,69,0.00,,,0.00,WUHU216HW,2013-08-17 19:04:00,
2013-08-17 12:09:00,70.6,59.5,30.09,SSE,158,2.5,5.8,68,0.00,,,0.00,WUHU216HW,2013-08-17 19:09:00,
2013-08-17 12:14:00,70.6,59.9,30.09,SSE,158,1.1,5.6,69,0.00,,,0.00,WUHU216HW,2013-08-17 19:14:00,
2013-08-17 12:19:00,71.1,60.4,30.09,NNE,23,1.8,5.8,69,0.00,,,0.00,WUHU216HW,2013-08-17 19:19:00,
2013-08-17 12:24:00,71.1,60.4,30.09,ENE,68,1.3,5.8,69,0.00,,,0.00,WUHU216HW,2013-08-17 19:24:00,
2013-08-17 12:29:00,71.6,60.9,30.09,WSW,248,4.7,4.7,69,0.00,,,0.00,WUHU216HW,2013-08-17 19:29:00,
2013-08-17 12:34:00,72.4,61.7,30.09,ESE,113,2.5,4.7,69,0.00,,,0.00,WUHU216HW,2013-08-17 19:34:00,
2013-08-17 12:39:00,72.5,61.8,30.09,SSW,203,2.9,4.5,69,0.00,,,0.00,WUHU216HW,2013-08-17 19:39:00,
2013-08-17 12:44:00,73.1,61.9,30.09,West,270,3.6,6.7,68,0.00,,,0.00,WUHU216HW,2013-08-17 19:44:00,
2013-08-17 12:49:00,73.4,61.8,30.09,West,270,4.3,6.9,67,0.00,,,0.00,WUHU216HW,2013-08-17 19:49:00,
2013-08-17 12:54:00,73.6,62.0,30.09,WNW,293,4.0,6.9,67,0.00,,,0.00,WUHU216HW,2013-08-17 19:54:00,
2013-08-17 12:59:00,73.6,62.0,30.09,SW,225,2.0,4.3,67,0.00,,,0.00,WUHU216HW,2013-08-17 19:59:00,
2013-08-17 13:04:00,73.6,62.0,30.09,South,180,2.0,4.3,67,0.00,,,0.00,WUHU216HW,2013-08-17 20:04:00,
2013-08-17 13:09:00,73.1,61.0,30.09,SE,135,3.4,4.0,66,0.00,,,0.00,WUHU216HW,2013-08-17 20:09:00,
2013-08-17 13:14:00,72.4,60.3,30.10,West,270,3.6,5.6,66,0.00,,,0.00,WUHU216HW,2013-08-17 20:14:00,
2013-08-17 13:19:00,71.6,59.7,30.10,South,180,3.8,5.6,66,0.00,,,0.00,WUHU216HW,2013-08-17 20:19:00,
2013-08-17 13:24:00,71.3,59.3,30.10,SSW,203,2.7,5.4,66,0.00,,,0.00,WUHU216HW,2013-08-17 20:24:00,
2013-08-17 13:29:00,71.3,59.8,30.10,SE,135,2.9,4.9,67,0.00,,,0.00,WUHU216HW,2013-08-17 20:29:00,
2013-08-17 13:34:00,71.6,60.5,30.10,SE,135,1.1,4.9,68,0.00,,,0.00,WUHU216HW,2013-08-17 20:34:00,
2013-08-17 13:39:00,71.8,60.7,30.10,SW,225,4.5,4.5,68,0.00,,,0.00,WUHU216HW,2013-08-17 20:39:00,
2013-08-17 13:44:00,72.0,60.8,30.10,SSE,158,6.0,6.0,68,0.00,,,0.00,WUHU216HW,2013-08-17 20:44:00,
2013-08-17 13:49:00,72.5,60.9,30.09,SSW,203,2.5,6.0,67,0.00,,,0.00,WUHU216HW,2013-08-17 20:49:00,
2013-08-17 13:54:00,72.9,61.3,30.09,SW,225,4.9,4.9,67,0.00,,,0.00,WUHU216HW,2013-08-17 20:54:00,
2013-08-17 13:59:00,73.4,61.4,30.09,WSW,248,4.3,6.0,66,0.00,,,0.00,WUHU216HW,2013-08-17 20:59:00,
2013-08-17 14:04:00,74.2,62.1,30.09,SW,225,4.5,7.2,66,0.00,,,0.00,WUHU216HW,2013-08-17 21:04:00,
2013-08-17 14:09:00,75.1,62.9,30.09,West,270,7.2,7.2,66,0.00,,,0.00,WUHU216HW,2013-08-17 21:09:00,
2013-08-17 14:14:00,75.2,62.2,30.09,West,270,5.6,7.8,64,0.00,,,0.00,WUHU216HW,2013-08-17 21:14:00,
2013-08-17 14:19:00,75.4,62.4,30.09,SW,225,5.4,7.8,64,0.00,,,0.00,WUHU216HW,2013-08-17 21:19:00,
2013-08-17 14:24:00,75.4,61.9,30.09,WSW,248,5.4,6.9,63,0.00,,,0.00,WUHU216HW,2013-08-17 21:24:00,
2013-08-17 14:29:00,75.4,61.9,30.09,SW,225,6.5,8.5,63,0.00,,,0.00,WUHU216HW,2013-08-17 21:29:00,
2013-08-17 14:34:00,76.0,62.5,30.09,WSW,248,4.7,8.5,63,0.00,,,0.00,WUHU216HW,2013-08-17 21:34:00,
2013-08-17 14:39:00,76.3,61.9,30.09,West,270,5.1,8.3,61,0.00,,,0.00,WUHU216HW,2013-08-17 21:39:00,
2013-08-17 14:44:00,76.1,61.8,30.09,SSE,158,6.7,8.3,61,0.00,,,0.00,WUHU216HW,2013-08-17 21:44:00,
2013-08-17 14:49:00,76.3,61.9,30.09,ESE,113,6.7,7.8,61,0.00,,,0.00,WUHU216HW,2013-08-17 21:49:00,
2013-08-17 14:54:00,76.3,61.9,30.09,WSW,248,2.7,6.7,61,0.00,,,0.00,WUHU216HW,2013-08-17 21:54:00,
2013-08-17 14:59:00,76.5,62.1,30.08,SW,225,5.6,5.8,61,0.00,,,0.00,WUHU216HW,2013-08-17 21:59:00,
2013-08-17 15:04:00,76.5,61.7,30.09,NNW,338,1.8,6.7,60,0.00,,,0.00,WUHU216HW,2013-08-17 22:04:00,
2013-08-17 15:09:00,76.3,61.5,30.08,South,180,2.7,6.7,60,0.00,,,0.00,WUHU216HW,2013-08-17 22:09:00,
2013-08-17 15:14:00,76.3,61.5,30.08,West,270,9.2,9.2,60,0.00,,,0.00,WUHU216HW,2013-08-17 22:14:00,
2013-08-17 15:19:00,76.3,61.5,30.08,WSW,248,8.1,11.0,60,0.00,,,0.00,WUHU216HW,2013-08-17 22:19:00,
2013-08-17 15:24:00,76.1,61.3,30.08,SW,225,5.4,11.0,60,0.00,,,0.00,WUHU216HW,2013-08-17 22:24:00,
2013-08-17 15:29:00,76.1,61.3,30.08,WSW,248,9.8,9.8,60,0.00,,,0.00,WUHU216HW,2013-08-17 22:29:00,
2013-08-17 15:34:00,76.0,61.1,30.08,SW,225,7.2,9.8,60,0.00,,,0.00,WUHU216HW,2013-08-17 22:34:00,
2013-08-17 15:39:00,75.8,60.5,30.08,West,270,11.4,11.4,59,0.00,,,0.00,WUHU216HW,2013-08-17 22:39:00,
2013-08-17 15:44:00,75.8,60.9,30.08,WSW,248,8.5,11.4,60,0.00,,,0.00,WUHU216HW,2013-08-17 22:44:00,
2013-08-17 15:49:00,75.6,60.9,30.08,WSW,248,3.6,8.9,60,0.00,,,0.00,WUHU216HW,2013-08-17 22:49:00,
2013-08-17 15:54:00,75.6,60.9,30.07,WSW,248,5.4,8.7,60,0.00,,,0.00,WUHU216HW,2013-08-17 22:54:00,
2013-08-17 15:59:00,75.8,60.9,30.07,East,90,1.8,10.5,60,0.00,,,0.00,WUHU216HW,2013-08-17 22:59:00,
2013-08-17 16:04:00,75.6,60.9,30.08,North,0,2.5,10.5,60,0.00,,,0.00,WUHU216HW,2013-08-17 23:04:00,
2013-08-17 16:09:00,75.6,60.9,30.07,WSW,248,5.4,8.7,60,0.00,,,0.00,WUHU216HW,2013-08-17 23:09:00,
2013-08-17 16:14:00,75.8,60.9,30.07,ESE,113,5.4,8.7,60,0.00,,,0.00,WUHU216HW,2013-08-17 23:14:00,
2013-08-17 16:19:00,75.6,60.3,30.08,SW,225,2.7,8.3,59,0.00,,,0.00,WUHU216HW,2013-08-17 23:19:00,
2013-08-17 16:24:00,75.6,60.9,30.08,WNW,293,1.6,5.4,60,0.00,,,0.00,WUHU216HW,2013-08-17 23:24:00,
2013-08-17 16:29:00,75.6,60.9,30.07,WSW,248,4.5,5.4,60,0.00,,,0.00,WUHU216HW,2013-08-17 23:29:00,
2013-08-17 16:34:00,75.6,60.3,30.08,West,270,4.5,7.2,59,0.00,,,0.00,WUHU216HW,2013-08-17 23:34:00,
2013-08-17 16:39:00,75.6,60.3,30.07,WSW,248,6.9,9.2,59,0.00,,,0.00,WUHU216HW,2013-08-17 23:39:00,
2013-08-17 16:44:00,75.4,60.1,30.07,SSW,203,7.2,9.2,59,0.00,,,0.00,WUHU216HW,2013-08-17 23:44:00,
2013-08-17 16:49:00,75.2,59.9,30.07,SW,225,3.4,8.3,59,0.00,,,0.00,WUHU216HW,2013-08-17 23:49:00,
2013-08-17 16:54:00,75.1,60.3,30.07,West,270,4.7,5.8,60,0.00,,,0.00,WUHU216HW,2013-08-17 23:54:00,
2013-08-17 16:59:00,74.9,60.1,30.07,West,270,9.8,9.8,60,0.00,,,0.00,WUHU216HW,2013-08-17 23:59:00,
2013-08-17 17:04:00,74.5,59.8,30.07,SE,135,4.0,9.8,60,0.00,,,0.00,WUHU216HW,2013-08-18 00:04:00,
2013-08-17 17:09:00,74.2,59.4,30.07,West,270,2.7,4.3,60,0.00,,,0.00,WUHU216HW,2013-08-18 00:09:00,
2013-08-17 17:14:00,74.3,59.6,30.07,South,180,1.8,4.3,60,0.00,,,0.00,WUHU216HW,2013-08-18 00:14:00,
2013-08-17 17:19:00,74.2,59.4,30.07,SW,225,5.1,7.2,60,0.00,,,0.00,WUHU216HW,2013-08-18 00:19:00,
2013-08-17 17:24:00,74.3,60.0,30.07,SW,225,5.8,9.2,61,0.00,,,0.00,WUHU216HW,2013-08-18 00:24:00,
2013-08-17 17:29:00,74.3,59.6,30.07,NNW,338,0.9,9.2,60,0.00,,,0.00,WUHU216HW,2013-08-18 00:29:00,
2013-08-17 17:34:00,74.0,59.2,30.06,East,90,0.4,5.8,60,0.00,,,0.00,WUHU216HW,2013-08-18 00:34:00,
2013-08-17 17:39:00,73.8,59.5,30.07,SW,225,8.5,8.5,61,0.00,,,0.00,WUHU216HW,2013-08-18 00:39:00,
2013-08-17 17:44:00,73.8,59.5,30.06,WSW,248,6.3,8.5,61,0.00,,,0.00,WUHU216HW,2013-08-18 00:44:00,
2013-08-17 17:49:00,73.8,59.5,30.07,WSW,248,3.1,8.5,61,0.00,,,0.00,WUHU216HW,2013-08-18 00:49:00,
2013-08-17 17:54:00,73.6,59.3,30.07,WSW,248,1.8,8.5,61,0.00,,,0.00,WUHU216HW,2013-08-18 00:54:00,
2013-08-17 17:59:00,73.6,59.3,30.06,WSW,248,6.5,6.5,61,0.00,,,0.00,WUHU216HW,2013-08-18 00:59:00,
2013-08-17 18:04:00,73.1,58.8,30.06,SW,225,4.9,6.5,61,0.00,,,0.00,WUHU216HW,2013-08-18 01:04:00,
2013-08-17 18:09:00,73.1,59.2,30.06,SW,225,7.2,8.3,62,0.00,,,0.00,WUHU216HW,2013-08-18 01:09:00,
2013-08-17 18:14:00,72.9,59.0,30.06,South,180,2.5,8.3,62,0.00,,,0.00,WUHU216HW,2013-08-18 01:14:00,
2013-08-17 18:19:00,72.5,58.8,30.06,WSW,248,1.1,7.6,62,0.00,,,0.00,WUHU216HW,2013-08-18 01:19:00,
2013-08-17 18:24:00,72.4,58.6,30.06,WSW,248,3.6,6.0,62,0.00,,,0.00,WUHU216HW,2013-08-18 01:24:00,
2013-08-17 18:29:00,72.2,58.4,30.06,SE,135,2.9,3.8,62,0.00,,,0.00,WUHU216HW,2013-08-18 01:29:00,
2013-08-17 18:34:00,71.6,58.3,30.06,SE,135,4.7,4.7,63,0.00,,,0.00,WUHU216HW,2013-08-18 01:34:00,
2013-08-17 18:39:00,70.9,57.7,30.06,South,180,3.4,4.7,63,0.00,,,0.00,WUHU216HW,2013-08-18 01:39:00,
2013-08-17 18:44:00,70.7,57.5,30.06,SSW,203,2.5,4.7,63,0.00,,,0.00,WUHU216HW,2013-08-18 01:44:00,
2013-08-17 18:49:00,70.6,57.3,30.06,SE,135,2.7,2.7,63,0.00,,,0.00,WUHU216HW,2013-08-18 01:49:00,
2013-08-17 18:54:00,70.6,57.3,30.05,SE,135,2.5,2.7,63,0.00,,,0.00,WUHU216HW,2013-08-18 01:54:00,
2013-08-17 18:59:00,70.7,58.0,30.05,SSE,158,1.6,2.9,64,0.00,,,0.00,WUHU216HW,2013-08-18 01:59:00,
2013-08-17 19:04:00,70.6,57.8,30.06,SE,135,2.0,2.9,64,0.00,,,0.00,WUHU216HW,2013-08-18 02:04:00,
2013-08-17 19:09:00,70.4,57.6,30.05,SW,225,4.0,4.0,64,0.00,,,0.00,WUHU216HW,2013-08-18 02:09:00,
2013-08-17 19:14:00,70.0,57.2,30.05,SW,225,2.7,4.0,64,0.00,,,0.00,WUHU216HW,2013-08-18 02:14:00,
2013-08-17 19:19:00,69.8,57.1,30.05,SW,225,2.0,2.7,64,0.00,,,0.00,WUHU216HW,2013-08-18 02:19:00,
2013-08-17 19:24:00,69.5,57.2,30.05,SE,135,2.2,2.5,65,0.00,,,0.00,WUHU216HW,2013-08-18 02:24:00,
2013-08-17 19:29:00,69.5,57.2,30.05,WSW,248,2.5,3.4,65,0.00,,,0.00,WUHU216HW,2013-08-18 02:29:00,
2013-08-17 19:34:00,69.1,56.8,30.06,SSE,158,2.0,3.4,65,0.00,,,0.00,WUHU216HW,2013-08-18 02:34:00,
2013-08-17 19:39:00,68.9,56.7,30.05,SE,135,0.4,2.0,65,0.00,,,0.00,WUHU216HW,2013-08-18 02:39:00,
2013-08-17 19:44:00,68.8,56.5,30.05,WSW,248,2.5,4.0,65,0.00,,,0.00,WUHU216HW,2013-08-18 02:44:00,
2013-08-17 19:49:00,68.8,56.5,30.06,SW,225,0.7,4.0,65,0.00,,,0.00,WUHU216HW,2013-08-18 02:49:00,
2013-08-17 19:54:00,68.8,56.5,30.06,NW,315,1.8,3.4,65,0.00,,,0.00,WUHU216HW,2013-08-18 02:54:00,
2013-08-17 19:59:00,68.4,56.6,30.06,WNW,293,0.9,2.5,66,0.00,,,0.00,WUHU216HW,2013-08-18 02:59:00,
2013-08-17 20:04:00,68.0,56.3,30.06,WNW,293,2.7,2.7,66,0.00,,,0.00,WUHU216HW,2013-08-18 03:04:00,
2013-08-17 20:09:00,67.5,55.7,30.06,WSW,248,0.4,2.7,66,0.00,,,0.00,WUHU216HW,2013-08-18 03:09:00,
2013-08-17 20:14:00,67.1,55.8,30.06,SSW,203,1.1,1.8,67,0.00,,,0.00,WUHU216HW,2013-08-18 03:14:00,
2013-08-17 20:19:00,66.6,55.3,30.06,North,0,0.0,1.1,67,0.00,,,0.00,WUHU216HW,2013-08-18 03:19:00,
2013-08-17 20:24:00,66.1,55.2,30.06,West,270,0.4,1.3,68,0.00,,,0.00,WUHU216HW,2013-08-18 03:24:00,
2013-08-17 20:30:00,65.7,54.8,30.06,West,270,0.7,1.8,68,0.00,,,0.00,WUHU216HW,2013-08-18 03:30:00,
2013-08-17 20:35:00,65.3,54.9,30.06,West,270,0.4,1.8,69,0.00,,,0.00,WUHU216HW,2013-08-18 03:35:00,
2013-08-17 20:40:00,65.0,54.6,30.06,SSW,203,0.4,0.9,69,0.00,,,0.00,WUHU216HW,2013-08-18 03:40:00,
2013-08-17 20:45:00,64.6,54.7,30.06,SSW,203,0.0,0.7,70,0.00,,,0.00,WUHU216HW,2013-08-18 03:45:00,
2013-08-17 20:50:00,64.1,54.2,30.06,SSW,203,1.1,1.1,70,0.00,,,0.00,WUHU216HW,2013-08-18 03:50:00,
2013-08-17 20:55:00,63.9,54.0,30.06,SSW,203,0.9,1.1,70,0.00,,,0.00,WUHU216HW,2013-08-18 03:55:00,
2013-08-17 21:00:00,63.5,54.0,30.06,South,180,0.7,0.9,71,0.00,,,0.00,WUHU216HW,2013-08-18 04:00:00,
2013-08-17 21:05:00,63.0,53.5,30.06,ESE,113,0.7,1.1,71,0.00,,,0.00,WUHU216HW,2013-08-18 04:05:00,
2013-08-17 21:10:00,62.6,53.5,30.06,SE,135,0.0,1.1,72,0.00,,,0.00,WUHU216HW,2013-08-18 04:10:00,
2013-08-17 21:15:00,62.3,53.1,30.07,SE,135,0.0,0.4,72,0.00,,,0.00,WUHU216HW,2013-08-18 04:15:00,
2013-08-17 21:20:00,62.1,53.4,30.07,South,180,0.0,0.0,73,0.00,,,0.00,WUHU216HW,2013-08-18 04:20:00,
2013-08-17 21:25:00,61.9,52.8,30.07,South,180,0.0,0.0,72,0.00,,,0.00,WUHU216HW,2013-08-18 04:25:00,
2013-08-17 21:30:00,61.6,52.8,30.07,SSW,203,0.9,0.9,73,0.00,,,0.00,WUHU216HW,2013-08-18 04:30:00,
2013-08-17 21:35:00,61.4,52.7,30.07,SSW,203,1.1,1.1,73,0.00,,,0.00,WUHU216HW,2013-08-18 04:35:00,
2013-08-17 21:40:00,61.0,52.4,30.07,SSW,203,0.7,1.1,73,0.00,,,0.00,WUHU216HW,2013-08-18 04:40:00,
2013-08-17 21:45:00,60.8,52.6,30.07,SSW,203,0.0,1.1,74,0.00,,,0.00,WUHU216HW,2013-08-18 04:45:00,
2013-08-17 21:50:00,60.5,52.2,30.07,SSW,203,0.0,0.4,74,0.00,,,0.00,WUHU216HW,2013-08-18 04:50:00,
2013-08-17 21:55:00,60.3,52.0,30.07,SSW,203,0.4,0.4,74,0.00,,,0.00,WUHU216HW,2013-08-18 04:55:00,
2013-08-17 22:00:00,60.1,52.2,30.08,SSW,203,1.1,1.1,75,0.00,,,0.00,WUHU216HW,2013-08-18 05:00:00,
2013-08-17 22:05:00,59.8,51.8,30.08,WSW,248,0.9,1.8,75,0.00,,,0.00,WUHU216HW,2013-08-18 05:05:00,
2013-08-17 22:10:00,59.8,52.2,30.08,WNW,293,0.7,1.8,76,0.00,,,0.00,WUHU216HW,2013-08-18 05:10:00,
2013-08-17 22:15:00,59.6,52.0,30.08,NW,315,0.0,0.9,76,0.00,,,0.00,WUHU216HW,2013-08-18 05:15:00,
2013-08-17 22:20:00,59.4,52.2,30.08,NW,315,0.4,0.9,77,0.00,,,0.00,WUHU216HW,2013-08-18 05:20:00,
2013-08-17 22:25:00,59.4,52.2,30.08,NW,315,0.0,0.4,77,0.00,,,0.00,WUHU216HW,2013-08-18 05:25:00,
2013-08-17 22:30:00,59.6,52.4,30.08,WSW,248,1.1,1.1,77,0.00,,,0.00,WUHU216HW,2013-08-18 05:30:00,
2013-08-17 22:35:00,59.6,52.4,30.08,SW,225,1.1,1.6,77,0.00,,,0.00,WUHU216HW,2013-08-18 05:35:00,
2013-08-17 22:40:00,59.6,52.4,30.08,WSW,248,1.3,1.6,77,0.00,,,0.00,WUHU216HW,2013-08-18 05:40:00,
2013-08-17 22:45:00,59.6,52.4,30.08,WSW,248,0.0,1.6,77,0.00,,,0.00,WUHU216HW,2013-08-18 05:45:00,
2013-08-17 22:50:00,59.6,52.7,30.08,SW,225,0.4,0.7,78,0.00,,,0.00,WUHU216HW,2013-08-18 05:50:00,
2013-08-17 22:55:00,59.4,52.6,30.08,WSW,248,1.6,2.5,78,0.00,,,0.00,WUHU216HW,2013-08-18 05:55:00,
2013-08-17 23:00:00,59.4,52.6,30.08,SW,225,1.3,2.5,78,0.00,,,0.00,WUHU216HW,2013-08-18 06:00:00,
2013-08-17 23:05:00,59.4,52.6,30.08,WSW,248,1.8,2.5,78,0.00,,,0.00,WUHU216HW,2013-08-18 06:05:00,
2013-08-17 23:10:00,59.6,53.1,30.08,SW,225,0.2,2.5,79,0.00,,,0.00,WUHU216HW,2013-08-18 06:10:00,
2013-08-17 23:15:00,59.6,53.1,30.08,SW,225,1.1,1.8,79,0.00,,,0.00,WUHU216HW,2013-08-18 06:15:00,
2013-08-17 23:20:00,59.8,53.3,30.08,WSW,248,1.1,1.3,79,0.00,,,0.00,WUHU216HW,2013-08-18 06:20:00,
2013-08-17 23:25:00,59.8,53.3,30.08,SW,225,1.8,1.8,79,0.00,,,0.00,WUHU216HW,2013-08-18 06:25:00,
2013-08-17 23:30:00,59.8,53.3,30.08,SW,225,0.4,1.8,79,0.00,,,0.00,WUHU216HW,2013-08-18 06:30:00,
2013-08-17 23:35:00,59.8,53.3,30.08,WSW,248,1.3,2.0,79,0.00,,,0.00,WUHU216HW,2013-08-18 06:35:00,
2013-08-17 23:40:00,59.8,53.3,30.08,West,270,1.1,2.5,79,0.00,,,0.00,WUHU216HW,2013-08-18 06:40:00,
2013-08-17 23:45:00,59.8,53.3,30.08,WSW,248,1.1,2.5,79,0.00,,,0.00,WUHU216HW,2013-08-18 06:45:00,
2013-08-17 23:50:00,59.8,53.3,30.08,West,270,0.4,2.5,79,0.00,,,0.00,WUHU216HW,2013-08-18 06:50:00,
2013-08-17 23:55:00,59.8,53.3,30.09,West,270,1.6,1.6,79,0.00,,,0.00,WUHU216HW,2013-08-18 06:55:00,